TIANLIAN 2-01 (44076 NORAD) Tracking and Keplerian Element Data

This shows tracking and keplerian element data for the satellite.

Feedback or suggestion? Click here.




ElementValue
Catalog44076
NameTIANLIAN 2-01
Epoch Orbit48
Epoch Day119.93850075
Epoch Year2019
RAAN290.51
Inclination2.9602
Eccentricity0.0031082
Argument of Perigee199.3926
Mean Anonmoly145.5725
Mean Motion1.00271975
Decay Rate-1.47E-06
L11 44076U 19017A 19119.93850075 -.00000147 00000-0 00000-0 0 9990
L22 44076 2.9602 290.5100 0031082 199.3926 145.5725 1.00271975 485

Live tracking and technical data element details for TIANLIAN 2-01 (NORAD 44076). TIANLIAN 2-01 can be tracked NOW for your location showing map with azimuth and elevation plus other details from your city location.

Track the satellite on the map from your city or location and see movement details for azimuth, elevation, latitude, longitude, range, height, and movement on the map or in text.







IsCatalogInMostPopularTable: catalog: 44076, numindb: 16
Update: records affected: 1



GetName: 44076 TIANLIAN 2-01

Hit Count: updated at: Tue, 16 Jul 2019 21:21:24 GMT